STARLINK-5063 (53907 NORAD) Tracking and Keplerian Element Data

This shows tracking and keplerian element data for the satellite.

Feedback or suggestion? Click here.




ElementValue
Catalog53907
NameSTARLINK-5063
Epoch Orbit130
Epoch Day324.91667824
Epoch Year2022
RAAN333.3421
Inclination53.2172
Eccentricity0.000116
Argument of Perigee63.3771
Mean Anonmoly287.4454
Mean Motion15.38144837
Decay Rate-0.01136908
L11 53907U 22119X 22324.91667824 -.01136908 00000+0 -32662-1 0 9994
L22 53907 53.2172 333.3421 0001160 63.3771 287.4454 15.38144837 1302



Live tracking and technical data element details for STARLINK-5063 (NORAD 53907). STARLINK-5063 can be tracked NOW for your location showing map with azimuth and elevation plus other details from your city location.







IsCatalogInMostPopularTable: catalog: 53907, numindb: 1
Update: records affected: 1



GetName: 53907 STARLINK-5063

Hit Count: updated at: Fri, 09 Dec 2022 19:52:31 GMT